SCP
0 0 0 0 0 0 0 0 0 0 -0 0 0 0 0 0 0 0 0 0 0 0 0 0 0 0 0 0 0 0 0 0 0 0 0 0 0 0 0 0 0 0 0 0 0 0 0 0 0 0 0 0 0 0
0 0 0 0 0 0 0 0 -0 -0 0 0 0 0 0 0 0 0 0 0 0 0 0 0 0 0 0 0 0 0 0 0 0 0 0 0 0 0 0 0 0 0 0 0 0 0 0 0 0 -0 -0 0 0 0
0 0 0 0 0 0 0 -0 -0 0 0 0 0 0 0 0 0 0 0 0 0 0 0 0 0 0 0 0 0 0 0 0 0 0 0 0 0 0 0 0 0 0 0 0 0 0 0 0 -0 -0 -0 -0 -0 -0
0 0 0 0 0 0 -0 -0 0 0 -0 0 0 0 0 0 0 0 0 0 0 0 0 0 0 0 0 0 0 0 0 0 0 0 0 0 0 0 0 0 0 0 0 0 0 0 0 0 0 0 0 0 0 0
0 0 0 0 0 0 -0 -0 -0 0 0 0 0 0 -0 -0 0 0 0 0 0 0 0 0 0 0 0 0 0 0 0 0 0 0 0 0 0 0 0 0 0 0 0 0 0 0 0 0 0 0 0 0 0 0
0 0 0 0 0 0 -0 -0 -0 0 0 0 0 0 0 -0 -0 0 0 0 0 0 0 0 0 0 0 0 0 0 0 0 0 0 0 0 0 0 0 0 0 0 0 0 0 0 0 0 0 0 0 0 0 0
0 0 0 0 0 0 0 -0 -0 0 0 0 0 0 0 0 0 0 0 0 0 0 0 0 0 0 0 0 0 0 0 0 0 0 0 0 0 0 0 0 0 0 0 0 0 0 0 0 0 0 0 0 0 0
0 0 0 0 0 0 0 0 -0 0 0 0 0 -0 0 0 0 0 0 0 0 0 0 0 0 0 0 0 0 0 0 0 0 0 0 0 0 0 0 0 0 0 0 0 0 0 0 0 0 0 0 0 0 0
0 0 0 0 0 0 0 -0 0 0 0 0 0 0 0 0 0 0 0 0 0 0 0 0 0 0 0 0 0 0 0 0 0 0 0 0 0 0 0 0 0 0 0 0 0 0 0 0 0 0 0 0 0 0
0 0 0 0 0 0 -0 0 0 0 0 -0 0 0 0 0 0 0 0 0 0 0 0 0 0 0 0 0 0 0 0 0 0 0 0 0 0 0 0 0 0 0 0 0 0 0 0 0 0 0 0 0 0 0
0 0 0 0 0 0 0 0 0 0 0 0 0 0 0 -0 0 0 0 0 0 0 0 0 0 0 0 0 0 0 0 0 0 0 0 0 0 0 0 0 0 0 0 0 0 0 0 0 0 0 0 0 0 0
0 0 0 0 0 0 0 0 0 0 -0 -0 0 0 0 0 0 0 0 0 0 0 0 0 0 0 0 0 0 0 0 0 0 0 0 0 0 0 0 0 0 0 0 0 0 0 0 0 0 0 0 0 0 0
0 0 0 0 0 0 0 -0 0 0 -0 0 0 0 0 0 0 0 0 0 0 0 0 0 0 0 0 0 0 0 0 0 0 0 0 0 0 0 0 0 0 0 0 0 0 0 0 0 0 0 0 0 0 0
0 0 0 0 0 0 -0 0 0 -0 -0 0 0 0 0 0 0 0 0 0 0 0 0 0 0 0 0 0 0 0 0 0 0 0 0 0 0 0 0 0 0 0 0 0 0 0 0 0 0 0 0 0 0 0
0 0 0 0 0 0 0 0 0 0 -0 0 0 0 0 0 0 0 0 0 0 0 0 0 0 0 0 0 0 0 0 0 0 0 0 0 0 0 0 0 0 0 0 0 0 0 0 0 0 0 0 0 0 0
0 0 0 0 0 0 0 0 0 -0 -0 0 0 0 0 0 0 0 0 0 0 0 0 0 0 0 0 0 0 0 0 0 0 0 0 0 0 0 0 0 0 0 0 0 0 0 0 0 0 0 0 0 0 0
0 0 0 0 0 0 0 0 0 0 -0 0 0 0 0 0 0 0 0 0 0 0 0 0 0 0 0 0 0 0 0 0 0 0 0 0 0 0 0 0 0 0 0 0 0 0 0 0 0 0 0 0 0 0
0 0 0 0 0 0 0 0 0 -0 0 0 0 0 0 0 0 0 0 0 0 0 0 0 0 0 0 0 0 0 0 0 0 0 0 0 0 0 0 0 0 0 0 0 0 0 0 0 0 0 0 0 0 0
0 0 0 0 0 0 0 0 -0 -0 0 0 0 0 0 0 0 0 0 0 0 0 0 0 0 0 0 0 0 0 0 0 0 0 0 0 0 0 0 0 0 0 0 0 0 0 0 0 0 0 0 0 0 0
0 0 0 0 0 0 0 0 -0 0 0 0 0 0 0 0 0 0 0 0 0 0 0 0 0 0 0 0 0 0 0 0 0 0 0 0 0 0 0 0 0 0 0 0 0 0 0 0 0 0 0 0 0 0
0 0 0 0 0 0 0 0 0 0 0 0 0 0 0 0 0 0 0 0 0 0 0 0 0 0 0 0 0 0 0 0 0 0 0 0 0 0 0 0 0 0 0 0 0 0 0 -0 -0 -0 -0 0 0 -0
0 0 0 0 0 0 0 0 0 0 0 0 0 0 0 0 0 0 0 0 0 0 0 0 0 0 0 0 0 0 0 0 0 0 0 0 0 0 0 0 0 0 0 0 0 0 0 0 0 0 0 -0 -0 -0
0 0 0 0 0 0 0 0 0 -0 0 0 0 0 0 0 0 0 0 0 0 0 0 0 0 0 0 0 0 0 0 0 0 0 0 0 0 0 0 0 0 0 0 0 0 0 0 0 0 0 -0 -0 -0 -0
0 0 0 0 0 0 0 0 0 0 0 -0 0 0 0 0 0 0 0 0 0 0 0 0 0 0 0 0 0 0 0 0 0 0 0 0 0 0 0 0 0 0 0 0 0 0 0 0 0 0 -0 -0 -0 -0
0 0 0 0 0 0 0 0 0 0 0 0 -0 -0 -0 0 0 0 0 0 0 0 0 0 0 0 0 0 0 0 0 0 0 0 0 0 0 0 0 0 0 0 0 0 0 0 0 0 0 0 0 0 -0 -0
0 0 0 0 0 0 0 0 0 -0 -0 -0 0 0 0 0 0 0 0 0 0 0 0 0 0 0 0 0 0 0 0 0 0 0 0 0 0 0 0 0 0 0 0 0 0 0 0 0 -0 -0 -0 -0 -0 -0
0 0 0 0 0 0 0 0 -0 -0 -0 -0 0 0 0 -0 0 0 0 0 0 0 0 0 0 0 0 0 0 0 0 0 0 0 0 0 0 0 0 0 0 0 0 0 0 0 -0 -0 -0 -0 -0 -0 -0 -0
0 0 0 0 0 0 0 0 0 0 0 0 0 0 0 0 0 0 0 0 0 0 0 0 0 0 0 0 0 0 0 0 0 0 0 0 0 0 0 0 0 0 0 0 0 -0 -0 -0 -0 -0 -0 -0 -0 -0
0 0 0 0 0 0 0 0 0 0 0 0 -0 -0 -0 0 -0 0 0 0 0 0 0 0 0 0 0 0 0 0 0 0 0 0 0 0 0 0 0 0 0 0 0 0 -0 -0 0 0 0 -0 -0 -0 0 0
0 0 0 0 0 0 0 0 0 0 0 0 -0 -0 -0 0 0 0 0 0 0 0 0 0 0 0 0 0 0 0 0 0 0 0 0 0 0 0 0 0 0 0 0 0 -0 -0 0 0 -0 -0 -0 0 0 0
0 0 0 0 0 0 0 0 0 0 -0 -0 -0 -0 -0 0 0 0 0 0 0 0 0 0 0 0 0 0 0 0 0 0 0 0 0 0 0 0 0 0 0 0 0 0 0 -0 -0 -0 -0 0 0 0 0 0
0 0 0 0 0 0 0 0 0 0 -0 -0 -0 -0 0 0 0 0 0 0 0 0 0 0 0 0 0 0 0 0 0 0 0 0 0 0 0 0 0 0 0 0 0 0 0 0 0 0 0 0 0 0 0 0
0 0 0 0 0 0 0 0 -0 0 0 0 -0 0 0 0 0 0 0 0 0 0 0 0 0 0 0 0 0 0 0 0 0 0 0 0 0 0 0 0 0 0 0 0 0 0 0 0 0 0 0 0 0 0
Wind_Speed_500mb
60 64 69 75 76 77 78 82 91 89 106 87 83 80 80 75 68 71 80 70 66 62 60 45 59 30 24 47 18 17 16 6 9 16 15 10 10 15 9 9 11 14 9 7 6 11 13 8 3 6 11 7 4 3
63 68 72 78 77 78 82 86 98 97 94 81 78 83 87 80 74 64 74 75 66 77 33 39 54 66 69 64 53 40 16 15 24 10 7 8 7 7 10 12 7 11 12 5 10 2 12 10 13 29 30 18 11 4
68 70 72 77 79 79 82 90 97 99 88 88 80 73 69 57 48 56 64 65 64 39 48 53 57 78 75 78 75 28 19 37 26 26 11 5 7 13 13 13 10 8 8 8 5 7 19 15 11 23 23 13 11 5
70 71 72 76 83 83 81 89 95 100 78 71 61 61 52 44 46 51 53 60 45 20 13 31 47 60 63 58 76 58 45 49 32 29 6 7 8 16 15 10 15 7 18 12 7 4 16 11 10 21 13 15 12 6
69 72 74 76 78 81 82 86 96 102 69 67 62 54 53 54 50 47 48 47 38 35 7 14 21 43 44 60 70 56 33 34 31 10 7 10 10 11 3 6 10 15 12 15 17 17 5 11 23 24 27 16 9 4
72 76 76 76 76 82 82 86 88 91 81 71 65 54 52 44 46 45 29 38 37 44 15 11 13 22 35 47 39 39 50 36 30 13 7 7 13 18 10 12 8 9 12 10 9 19 17 28 23 21 21 16 11 9
76 75 77 78 78 80 84 85 84 85 85 75 73 63 57 54 49 42 17 11 13 14 9 2 6 7 27 34 30 30 38 33 17 15 9 9 15 26 6 12 12 14 17 18 19 22 15 20 11 13 12 11 10 11
75 77 78 80 81 84 85 83 80 74 83 80 74 59 54 44 29 27 39 44 31 16 12 3 5 7 10 9 9 20 17 26 9 8 9 4 1 8 6 12 14 14 14 15 13 9 15 16 13 9 10 12 11 13
75 79 80 80 83 84 83 79 72 70 81 84 53 39 25 10 11 16 21 32 33 14 3 6 1 6 4 6 7 7 10 5 6 4 6 15 2 4 10 13 18 19 9 9 8 6 8 10 7 6 11 16 17 17
77 80 84 87 88 82 78 61 62 65 76 73 29 10 6 21 25 17 11 6 12 13 13 5 6 2 5 3 3 5 4 5 8 3 7 8 6 9 15 14 13 14 14 13 6 1 3 3 5 10 13 16 19 23
81 91 91 85 77 71 64 59 63 70 71 40 22 9 24 26 10 7 6 7 6 6 12 5 10 4 14 2 4 2 4 1 5 4 2 5 6 7 27 22 16 14 10 7 4 6 7 7 11 14 12 15 19 20
90 87 81 75 76 68 63 63 66 64 52 50 52 67 24 8 5 8 4 4 9 4 6 3 7 4 4 6 3 6 4 1 4 6 2 6 4 20 26 20 13 12 10 7 5 7 7 8 10 13 15 18 20 21
84 84 83 77 67 64 64 61 55 45 64 56 11 11 4 8 11 5 3 3 4 7 13 10 4 4 6 14 6 5 8 5 2 7 5 5 10 22 26 20 8 8 7 6 6 6 8 9 12 14 14 18 22 22
83 84 75 65 58 59 57 59 52 50 48 10 4 5 3 3 4 2 3 3 2 5 8 6 3 7 8 6 3 8 2 3 3 4 6 1 8 15 16 13 12 15 15 14 13 13 11 10 12 15 17 18 19 20
83 77 64 54 63 65 59 52 52 36 11 8 11 5 8 3 6 4 2 3 9 8 6 0 7 7 8 9 7 2 7 7 5 3 2 11 21 22 23 23 22 20 17 17 17 16 13 12 12 13 15 16 17 17
77 78 63 59 67 64 59 43 23 8 9 12 23 7 6 3 4 11 16 10 18 10 5 6 5 8 9 3 9 5 4 2 4 1 8 17 21 21 21 19 17 16 15 15 14 15 14 12 10 9 11 12 12 11
73 66 56 61 62 54 32 19 9 17 15 13 11 23 10 14 11 10 16 24 22 12 4 2 9 3 4 7 5 3 4 4 3 4 9 13 20 21 16 16 14 12 11 12 11 11 10 11 12 12 7 8 9 9
71 60 46 56 52 35 22 23 13 17 15 18 9 17 28 23 11 21 20 34 13 8 8 5 10 8 6 8 4 4 3 3 2 6 11 12 14 12 10 10 10 10 11 12 12 12 11 10 8 9 10 10 9 11
47 34 43 46 41 16 11 16 15 10 14 7 12 20 17 16 38 35 28 22 30 25 12 10 12 6 3 2 3 7 2 6 7 12 10 9 9 7 7 7 9 12 14 14 14 14 16 15 16 16 16 15 16 18
31 24 38 35 28 8 11 14 13 14 8 8 14 20 11 11 19 27 42 36 32 14 16 10 6 4 4 5 2 2 3 4 7 6 4 7 9 9 10 11 13 16 17 16 18 19 22 25 27 27 26 26 27 27
24 27 25 23 14 26 16 12 14 11 7 10 9 11 9 18 21 26 31 29 22 14 6 12 11 10 6 3 3 3 2 1 1 4 4 8 13 14 16 17 18 20 21 23 26 29 31 33 32 29 27 27 26 26
24 21 14 20 16 13 17 22 9 7 7 7 9 11 12 8 14 22 19 30 13 12 11 13 15 9 4 2 1 2 4 6 9 11 11 13 16 18 20 21 21 23 24 27 29 30 31 30 27 25 25 26 24 26
17 14 15 25 11 17 9 17 9 15 7 8 7 8 8 9 16 12 12 11 10 19 19 15 9 8 7 6 8 8 11 12 16 18 19 21 23 25 25 26 26 28 30 30 29 29 30 29 27 27 27 26 24 25
19 16 20 18 28 10 15 18 13 14 10 9 7 6 8 12 18 13 5 6 12 21 15 13 5 4 8 9 12 15 18 19 23 26 25 25 29 30 28 29 28 29 30 30 27 27 28 28 27 26 25 23 24 25
13 27 18 16 24 17 14 12 12 11 7 7 7 8 7 13 5 6 1 8 16 22 19 13 11 12 13 16 17 18 21 21 23 28 28 25 27 29 28 27 28 29 30 25 26 25 28 27 25 24 24 23 23 24
16 21 13 10 10 10 3 8 8 6 4 9 4 13 8 5 8 2 4 14 14 18 18 12 10 12 13 16 19 22 24 24 23 25 28 25 25 22 25 26 28 30 27 27 27 25 26 26 25 23 22 23 23 24
11 8 13 15 8 6 7 4 2 6 8 7 6 8 6 8 3 5 7 12 14 14 10 8 10 12 15 18 20 22 22 19 20 26 28 26 24 24 23 22 26 29 27 26 25 24 25 25 23 23 23 23 23 22
8 7 4 10 7 10 6 4 5 3 4 8 5 9 6 6 4 6 5 10 10 8 10 14 16 18 21 24 26 27 28 27 27 28 29 30 28 25 24 25 25 26 24 23 23 23 22 22 20 19 21 22 21 21
7 10 4 7 3 5 5 5 3 5 11 4 5 2 2 3 8 7 6 5 6 10 15 18 21 22 21 21 21 22 22 22 23 23 24 26 25 24 24 24 23 21 20 18 16 16 20 18 18 20 19 18 18 18
6 13 4 3 6 1 4 4 3 10 10 8 3 3 5 6 10 10 8 7 9 13 15 16 17 16 15 15 16 16 17 18 20 19 18 21 22 22 22 21 20 18 16 15 14 14 14 15 15 14 13 14 15 16
6 7 3 3 3 3 2 7 11 7 5 6 6 5 4 3 5 11 10 9 11 12 12 12 12 13 13 15 16 18 18 18 18 19 20 19 19 18 17 16 14 13 12 11 10 10 11 11 10 10 11 12 11 12
6 6 4 3 1 1 4 6 2 2 2 2 3 4 3 3 3 4 6 5 7 9 11 12 11 11 12 12 12 14 18 19 19 19 17 16 15 14 13 11 10 9 8 7 7 7 6 6 7 7 7 6 6 5
4 4 3 3 1 2 6 11 3 2 1 1 2 3 3 2 2 3 5 5 5 9 11 12 12 11 11 12 13 14 16 16 16 15 15 13 11 10 9 7 6 5 5 4 4 4 4 5 5 5 5 5 6 6
Wind_Direction_500mb
330 328 327 324 321 321 318 320 318 312 314 305 302 294 286 276 271 270 272 273 261 264 262 263 263 207 184 199 185 157 134 165 176 194 193 170 209 201 184 202 191 197 183 211 221 240 242 317 90 69 114 139 134 55
327 326 326 327 323 320 322 319 322 319 314 312 308 302 289 274 264 268 270 274 270 250 263 254 269 268 244 228 197 175 201 161 180 166 198 138 159 167 179 208 194 206 196 217 223 327 139 107 131 160 164 165 200 98
324 323 324 326 326 322 320 323 325 326 318 310 303 304 311 275 266 266 268 276 270 253 280 263 255 271 265 242 230 174 201 189 187 184 150 154 172 166 169 221 170 231 176 205 173 178 185 158 154 170 163 147 133 148
327 322 323 324 325 324 320 325 330 329 323 325 318 308 303 297 282 274 267 260 281 259 264 260 269 247 248 223 210 217 211 195 190 175 138 150 188 208 199 181 205 189 153 181 224 137 155 157 156 181 188 191 185 184
328 325 323 322 325 325 324 325 331 342 334 328 320 317 303 291 281 284 273 273 273 244 296 297 242 239 231 219 215 197 194 192 173 171 181 184 158 152 131 130 187 183 179 198 223 150 150 144 180 179 193 197 209 265
325 325 320 320 323 325 322 324 330 332 335 333 326 323 328 301 286 279 270 266 255 249 248 227 229 199 213 206 199 203 217 197 192 200 182 199 175 182 170 202 116 117 166 152 145 145 123 146 157 170 181 195 226 277
326 323 320 321 320 319 322 320 322 329 331 328 319 320 313 307 295 249 225 225 244 314 253 222 154 120 185 190 194 201 213 215 195 185 183 175 193 187 194 208 107 95 119 116 132 138 129 158 172 186 199 229 260 276
326 324 322 321 319 320 317 318 319 321 330 325 315 312 307 304 299 264 253 239 246 244 249 204 105 112 134 147 148 183 186 197 185 180 136 139 273 193 142 67 71 41 112 99 98 125 143 169 190 217 252 266 280 290
326 325 324 322 321 320 319 316 320 319 327 326 318 315 308 301 326 313 282 220 212 199 119 52 71 128 93 103 121 133 161 166 130 175 154 147 46 67 1 359 23 28 43 353 23 123 147 175 195 248 280 288 296 299
328 326 325 322 320 318 319 323 326 323 325 332 320 320 333 342 321 299 254 109 51 47 46 72 344 78 15 156 98 115 42 141 173 68 84 62 85 81 13 18 11 7 24 27 77 75 206 207 276 287 293 303 305 309
327 326 323 322 323 325 322 322 323 324 324 340 330 297 303 319 320 17 42 53 15 63 17 33 31 60 24 99 97 18 156 158 164 118 204 128 81 25 359 360 351 351 359 19 7 292 295 291 300 294 292 303 308 306
327 328 327 324 324 321 319 318 318 313 311 311 295 281 295 295 50 79 40 24 36 88 2 45 349 351 8 37 188 13 100 119 111 311 88 93 42 356 356 355 352 347 4 8 302 277 294 311 307 311 316 312 310 310
331 328 327 326 325 320 321 320 319 303 300 310 243 214 341 346 54 126 135 90 126 344 357 357 70 12 24 30 64 32 58 46 328 34 74 82 358 355 357 357 345 333 4 358 333 319 326 343 328 321 324 318 318 318
330 329 329 327 331 331 326 328 324 313 325 272 285 256 80 12 40 89 71 68 45 314 360 11 4 45 8 57 329 84 39 210 113 45 51 161 326 341 348 339 345 12 17 13 8 1 357 345 340 330 326 326 326 323
330 325 327 340 336 331 326 323 315 322 281 318 344 50 40 120 65 69 36 56 11 350 358 188 76 35 19 72 29 101 44 64 28 40 19 341 339 340 350 3 7 5 5 10 9 6 358 350 342 339 334 332 334 334
330 324 336 340 334 328 322 325 325 310 58 41 44 61 12 37 31 37 25 21 5 353 13 49 91 59 44 42 51 71 101 140 139 221 313 332 344 348 354 359 1 360 1 5 7 6 6 1 349 344 356 354 349 353
324 330 337 337 335 332 345 343 13 48 47 41 36 25 30 55 53 32 17 355 351 352 54 25 69 151 131 67 79 230 97 133 224 304 333 339 341 338 341 349 357 0 3 359 5 16 25 29 31 29 23 37 42 43
325 327 338 338 339 348 8 31 62 60 59 30 59 9 42 50 39 30 21 18 17 54 25 78 117 65 71 121 197 185 184 343 331 341 341 341 340 336 341 1 20 39 51 47 44 47 47 44 51 64 63 61 60 68
324 329 338 341 346 356 39 39 37 81 58 48 38 29 49 56 46 41 35 40 52 62 79 52 57 55 76 194 113 127 81 358 334 336 337 355 9 21 47 56 64 72 73 72 73 77 81 82 80 79 77 81 87 88
329 326 337 345 355 55 68 40 46 73 61 54 39 30 45 34 22 26 35 43 49 50 44 42 45 13 52 67 46 22 349 325 333 10 68 43 69 73 79 83 87 89 87 86 89 90 92 89 86 85 86 91 97 93
343 343 354 2 43 55 68 42 57 57 68 70 23 37 42 32 30 22 19 23 56 37 54 47 32 24 10 35 40 40 71 39 147 161 122 93 92 90 94 95 94 96 101 103 99 95 93 90 90 91 93 94 93 93
355 2 24 34 54 65 63 34 54 42 57 65 40 32 35 24 12 14 13 43 57 27 12 355 357 8 41 76 58 79 123 134 130 124 123 119 111 106 103 101 106 108 105 100 98 95 92 90 92 96 95 91 91 94
10 29 48 27 70 45 23 16 48 23 55 357 21 38 22 19 11 14 65 57 57 6 355 358 23 47 60 71 75 101 118 122 124 120 118 118 115 111 109 109 106 104 101 96 94 96 96 95 95 95 92 92 94 98
41 48 30 36 25 6 352 25 25 19 42 26 28 22 358 348 356 59 60 45 8 11 23 31 45 73 73 87 104 109 112 120 122 120 118 120 118 112 111 108 107 104 98 95 95 96 96 96 93 93 93 95 97 95
63 14 23 4 17 23 24 5 355 24 35 336 37 1 345 345 62 54 61 347 9 16 24 43 71 93 104 104 106 111 113 119 125 123 118 119 118 116 114 111 107 101 94 95 97 96 94 92 93 94 95 96 94 92
65 19 37 358 358 46 328 25 11 346 353 4 352 322 336 63 57 345 272 347 356 4 12 39 78 99 104 111 113 117 119 121 122 125 119 116 113 114 115 114 111 103 102 97 92 92 93 91 89 88 89 90 90 88
49 340 23 18 9 4 42 49 357 59 33 7 326 339 25 61 355 274 354 360 358 2 22 68 96 105 109 114 117 120 121 122 127 126 121 117 115 116 116 118 113 104 98 94 93 92 89 88 88 89 89 89 89 90
86 38 89 351 27 31 126 51 49 18 284 343 306 23 107 170 225 338 343 352 6 41 80 97 107 110 112 113 114 115 117 119 121 121 121 116 111 111 115 112 106 99 96 91 88 84 83 82 82 86 87 85 84 84
51 7 29 32 65 51 50 135 218 9 346 325 127 270 295 21 359 1 360 23 78 105 109 111 114 115 114 115 118 121 122 123 126 128 131 123 118 112 110 105 100 96 92 88 84 86 83 82 81 78 77 80 81 80
20 10 47 67 90 356 47 70 18 347 1 7 8 37 44 50 35 39 52 82 113 121 119 119 119 118 115 117 121 122 124 128 128 128 130 126 123 116 108 102 99 98 95 90 84 78 75 76 76 75 75 75 76 76
0 2 21 51 125 144 194 313 314 321 349 11 30 26 38 30 43 48 62 96 122 125 123 119 116 117 118 120 123 123 123 127 130 131 131 130 124 117 112 107 102 98 96 93 87 82 74 69 67 63 58 52 47 45
350 4 360 34 194 277 319 339 303 339 333 356 22 20 27 27 54 56 55 106 134 140 137 132 122 114 114 121 131 133 133 132 133 132 132 132 129 126 122 116 107 100 93 83 74 71 67 61 55 51 44 39 35 25
326 350 359 347 58 99 347 352 55 139 174 12 360 7 31 49 76 96 85 94 132 156 158 152 141 130 119 119 128 134 136 137 140 139 140 137 134 133 131 125 111 92 83 75 63 50 45 40 29 18 11 3 352 347
Wind_Speed_850mb
60 64 69 75 76 77 78 82 91 89 106 87 83 80 80 75 68 71 80 70 66 62 60 45 59 30 24 47 18 17 16 6 9 16 15 10 10 15 9 9 11 14 9 7 6 11 13 8 3 6 11 7 4 3
63 68 72 78 77 78 82 86 98 97 94 81 78 83 87 80 74 64 74 75 66 77 33 39 54 66 69 64 53 40 16 15 24 10 7 8 7 7 10 12 7 11 12 5 10 2 12 10 13 29 30 18 11 4
68 70 72 77 79 79 82 90 97 99 88 88 80 73 69 57 48 56 64 65 64 39 48 53 57 78 75 78 75 28 19 37 26 26 11 5 7 13 13 13 10 8 8 8 5 7 19 15 11 23 23 13 11 5
70 71 72 76 83 83 81 89 95 100 78 71 61 61 52 44 46 51 53 60 45 20 13 31 47 60 63 58 76 58 45 49 32 29 6 7 8 16 15 10 15 7 18 12 7 4 16 11 10 21 13 15 12 6
69 72 74 76 78 81 82 86 96 102 69 67 62 54 53 54 50 47 48 47 38 35 7 14 21 43 44 60 70 56 33 34 31 10 7 10 10 11 3 6 10 15 12 15 17 17 5 11 23 24 27 16 9 4
72 76 76 76 76 82 82 86 88 91 81 71 65 54 52 44 46 45 29 38 37 44 15 11 13 22 35 47 39 39 50 36 30 13 7 7 13 18 10 12 8 9 12 10 9 19 17 28 23 21 21 16 11 9
76 75 77 78 78 80 84 85 84 85 85 75 73 63 57 54 49 42 17 11 13 14 9 2 6 7 27 34 30 30 38 33 17 15 9 9 15 26 6 12 12 14 17 18 19 22 15 20 11 13 12 11 10 11
75 77 78 80 81 84 85 83 80 74 83 80 74 59 54 44 29 27 39 44 31 16 12 3 5 7 10 9 9 20 17 26 9 8 9 4 1 8 6 12 14 14 14 15 13 9 15 16 13 9 10 12 11 13
75 79 80 80 83 84 83 79 72 70 81 84 53 39 25 10 11 16 21 32 33 14 3 6 1 6 4 6 7 7 10 5 6 4 6 15 2 4 10 13 18 19 9 9 8 6 8 10 7 6 11 16 17 17
77 80 84 87 88 82 78 61 62 65 76 73 29 10 6 21 25 17 11 6 12 13 13 5 6 2 5 3 3 5 4 5 8 3 7 8 6 9 15 14 13 14 14 13 6 1 3 3 5 10 13 16 19 23
81 91 91 85 77 71 64 59 63 70 71 40 22 9 24 26 10 7 6 7 6 6 12 5 10 4 14 2 4 2 4 1 5 4 2 5 6 7 27 22 16 14 10 7 4 6 7 7 11 14 12 15 19 20
90 87 81 75 76 68 63 63 66 64 52 50 52 67 24 8 5 8 4 4 9 4 6 3 7 4 4 6 3 6 4 1 4 6 2 6 4 20 26 20 13 12 10 7 5 7 7 8 10 13 15 18 20 21
84 84 83 77 67 64 64 61 55 45 64 56 11 11 4 8 11 5 3 3 4 7 13 10 4 4 6 14 6 5 8 5 2 7 5 5 10 22 26 20 8 8 7 6 6 6 8 9 12 14 14 18 22 22
83 84 75 65 58 59 57 59 52 50 48 10 4 5 3 3 4 2 3 3 2 5 8 6 3 7 8 6 3 8 2 3 3 4 6 1 8 15 16 13 12 15 15 14 13 13 11 10 12 15 17 18 19 20
83 77 64 54 63 65 59 52 52 36 11 8 11 5 8 3 6 4 2 3 9 8 6 0 7 7 8 9 7 2 7 7 5 3 2 11 21 22 23 23 22 20 17 17 17 16 13 12 12 13 15 16 17 17
77 78 63 59 67 64 59 43 23 8 9 12 23 7 6 3 4 11 16 10 18 10 5 6 5 8 9 3 9 5 4 2 4 1 8 17 21 21 21 19 17 16 15 15 14 15 14 12 10 9 11 12 12 11
73 66 56 61 62 54 32 19 9 17 15 13 11 23 10 14 11 10 16 24 22 12 4 2 9 3 4 7 5 3 4 4 3 4 9 13 20 21 16 16 14 12 11 12 11 11 10 11 12 12 7 8 9 9
71 60 46 56 52 35 22 23 13 17 15 18 9 17 28 23 11 21 20 34 13 8 8 5 10 8 6 8 4 4 3 3 2 6 11 12 14 12 10 10 10 10 11 12 12 12 11 10 8 9 10 10 9 11
47 34 43 46 41 16 11 16 15 10 14 7 12 20 17 16 38 35 28 22 30 25 12 10 12 6 3 2 3 7 2 6 7 12 10 9 9 7 7 7 9 12 14 14 14 14 16 15 16 16 16 15 16 18
31 24 38 35 28 8 11 14 13 14 8 8 14 20 11 11 19 27 42 36 32 14 16 10 6 4 4 5 2 2 3 4 7 6 4 7 9 9 10 11 13 16 17 16 18 19 22 25 27 27 26 26 27 27
24 27 25 23 14 26 16 12 14 11 7 10 9 11 9 18 21 26 31 29 22 14 6 12 11 10 6 3 3 3 2 1 1 4 4 8 13 14 16 17 18 20 21 23 26 29 31 33 32 29 27 27 26 26
24 21 14 20 16 13 17 22 9 7 7 7 9 11 12 8 14 22 19 30 13 12 11 13 15 9 4 2 1 2 4 6 9 11 11 13 16 18 20 21 21 23 24 27 29 30 31 30 27 25 25 26 24 26
17 14 15 25 11 17 9 17 9 15 7 8 7 8 8 9 16 12 12 11 10 19 19 15 9 8 7 6 8 8 11 12 16 18 19 21 23 25 25 26 26 28 30 30 29 29 30 29 27 27 27 26 24 25
19 16 20 18 28 10 15 18 13 14 10 9 7 6 8 12 18 13 5 6 12 21 15 13 5 4 8 9 12 15 18 19 23 26 25 25 29 30 28 29 28 29 30 30 27 27 28 28 27 26 25 23 24 25
13 27 18 16 24 17 14 12 12 11 7 7 7 8 7 13 5 6 1 8 16 22 19 13 11 12 13 16 17 18 21 21 23 28 28 25 27 29 28 27 28 29 30 25 26 25 28 27 25 24 24 23 23 24
16 21 13 10 10 10 3 8 8 6 4 9 4 13 8 5 8 2 4 14 14 18 18 12 10 12 13 16 19 22 24 24 23 25 28 25 25 22 25 26 28 30 27 27 27 25 26 26 25 23 22 23 23 24
11 8 13 15 8 6 7 4 2 6 8 7 6 8 6 8 3 5 7 12 14 14 10 8 10 12 15 18 20 22 22 19 20 26 28 26 24 24 23 22 26 29 27 26 25 24 25 25 23 23 23 23 23 22
8 7 4 10 7 10 6 4 5 3 4 8 5 9 6 6 4 6 5 10 10 8 10 14 16 18 21 24 26 27 28 27 27 28 29 30 28 25 24 25 25 26 24 23 23 23 22 22 20 19 21 22 21 21
7 10 4 7 3 5 5 5 3 5 11 4 5 2 2 3 8 7 6 5 6 10 15 18 21 22 21 21 21 22 22 22 23 23 24 26 25 24 24 24 23 21 20 18 16 16 20 18 18 20 19 18 18 18
6 13 4 3 6 1 4 4 3 10 10 8 3 3 5 6 10 10 8 7 9 13 15 16 17 16 15 15 16 16 17 18 20 19 18 21 22 22 22 21 20 18 16 15 14 14 14 15 15 14 13 14 15 16
6 7 3 3 3 3 2 7 11 7 5 6 6 5 4 3 5 11 10 9 11 12 12 12 12 13 13 15 16 18 18 18 18 19 20 19 19 18 17 16 14 13 12 11 10 10 11 11 10 10 11 12 11 12
6 6 4 3 1 1 4 6 2 2 2 2 3 4 3 3 3 4 6 5 7 9 11 12 11 11 12 12 12 14 18 19 19 19 17 16 15 14 13 11 10 9 8 7 7 7 6 6 7 7 7 6 6 5
4 4 3 3 1 2 6 11 3 2 1 1 2 3 3 2 2 3 5 5 5 9 11 12 12 11 11 12 13 14 16 16 16 15 15 13 11 10 9 7 6 5 5 4 4 4 4 5 5 5 5 5 6 6
Wind_Direction_850mb
330 328 327 324 321 321 318 320 318 312 314 305 302 294 286 276 271 270 272 273 261 264 262 263 263 207 184 199 185 157 134 165 176 194 193 170 209 201 184 202 191 197 183 211 221 240 242 317 90 69 114 139 134 55
327 326 326 327 323 320 322 319 322 319 314 312 308 302 289 274 264 268 270 274 270 250 263 254 269 268 244 228 197 175 201 161 180 166 198 138 159 167 179 208 194 206 196 217 223 327 139 107 131 160 164 165 200 98
324 323 324 326 326 322 320 323 325 326 318 310 303 304 311 275 266 266 268 276 270 253 280 263 255 271 265 242 230 174 201 189 187 184 150 154 172 166 169 221 170 231 176 205 173 178 185 158 154 170 163 147 133 148
327 322 323 324 325 324 320 325 330 329 323 325 318 308 303 297 282 274 267 260 281 259 264 260 269 247 248 223 210 217 211 195 190 175 138 150 188 208 199 181 205 189 153 181 224 137 155 157 156 181 188 191 185 184
328 325 323 322 325 325 324 325 331 342 334 328 320 317 303 291 281 284 273 273 273 244 296 297 242 239 231 219 215 197 194 192 173 171 181 184 158 152 131 130 187 183 179 198 223 150 150 144 180 179 193 197 209 265
325 325 320 320 323 325 322 324 330 332 335 333 326 323 328 301 286 279 270 266 255 249 248 227 229 199 213 206 199 203 217 197 192 200 182 199 175 182 170 202 116 117 166 152 145 145 123 146 157 170 181 195 226 277
326 323 320 321 320 319 322 320 322 329 331 328 319 320 313 307 295 249 225 225 244 314 253 222 154 120 185 190 194 201 213 215 195 185 183 175 193 187 194 208 107 95 119 116 132 138 129 158 172 186 199 229 260 276
326 324 322 321 319 320 317 318 319 321 330 325 315 312 307 304 299 264 253 239 246 244 249 204 105 112 134 147 148 183 186 197 185 180 136 139 273 193 142 67 71 41 112 99 98 125 143 169 190 217 252 266 280 290
326 325 324 322 321 320 319 316 320 319 327 326 318 315 308 301 326 313 282 220 212 199 119 52 71 128 93 103 121 133 161 166 130 175 154 147 46 67 1 359 23 28 43 353 23 123 147 175 195 248 280 288 296 299
328 326 325 322 320 318 319 323 326 323 325 332 320 320 333 342 321 299 254 109 51 47 46 72 344 78 15 156 98 115 42 141 173 68 84 62 85 81 13 18 11 7 24 27 77 75 206 207 276 287 293 303 305 309
327 326 323 322 323 325 322 322 323 324 324 340 330 297 303 319 320 17 42 53 15 63 17 33 31 60 24 99 97 18 156 158 164 118 204 128 81 25 359 360 351 351 359 19 7 292 295 291 300 294 292 303 308 306
327 328 327 324 324 321 319 318 318 313 311 311 295 281 295 295 50 79 40 24 36 88 2 45 349 351 8 37 188 13 100 119 111 311 88 93 42 356 356 355 352 347 4 8 302 277 294 311 307 311 316 312 310 310
331 328 327 326 325 320 321 320 319 303 300 310 243 214 341 346 54 126 135 90 126 344 357 357 70 12 24 30 64 32 58 46 328 34 74 82 358 355 357 357 345 333 4 358 333 319 326 343 328 321 324 318 318 318
330 329 329 327 331 331 326 328 324 313 325 272 285 256 80 12 40 89 71 68 45 314 360 11 4 45 8 57 329 84 39 210 113 45 51 161 326 341 348 339 345 12 17 13 8 1 357 345 340 330 326 326 326 323
330 325 327 340 336 331 326 323 315 322 281 318 344 50 40 120 65 69 36 56 11 350 358 188 76 35 19 72 29 101 44 64 28 40 19 341 339 340 350 3 7 5 5 10 9 6 358 350 342 339 334 332 334 334
330 324 336 340 334 328 322 325 325 310 58 41 44 61 12 37 31 37 25 21 5 353 13 49 91 59 44 42 51 71 101 140 139 221 313 332 344 348 354 359 1 360 1 5 7 6 6 1 349 344 356 354 349 353
324 330 337 337 335 332 345 343 13 48 47 41 36 25 30 55 53 32 17 355 351 352 54 25 69 151 131 67 79 230 97 133 224 304 333 339 341 338 341 349 357 0 3 359 5 16 25 29 31 29 23 37 42 43
325 327 338 338 339 348 8 31 62 60 59 30 59 9 42 50 39 30 21 18 17 54 25 78 117 65 71 121 197 185 184 343 331 341 341 341 340 336 341 1 20 39 51 47 44 47 47 44 51 64 63 61 60 68
324 329 338 341 346 356 39 39 37 81 58 48 38 29 49 56 46 41 35 40 52 62 79 52 57 55 76 194 113 127 81 358 334 336 337 355 9 21 47 56 64 72 73 72 73 77 81 82 80 79 77 81 87 88
329 326 337 345 355 55 68 40 46 73 61 54 39 30 45 34 22 26 35 43 49 50 44 42 45 13 52 67 46 22 349 325 333 10 68 43 69 73 79 83 87 89 87 86 89 90 92 89 86 85 86 91 97 93
343 343 354 2 43 55 68 42 57 57 68 70 23 37 42 32 30 22 19 23 56 37 54 47 32 24 10 35 40 40 71 39 147 161 122 93 92 90 94 95 94 96 101 103 99 95 93 90 90 91 93 94 93 93
355 2 24 34 54 65 63 34 54 42 57 65 40 32 35 24 12 14 13 43 57 27 12 355 357 8 41 76 58 79 123 134 130 124 123 119 111 106 103 101 106 108 105 100 98 95 92 90 92 96 95 91 91 94
10 29 48 27 70 45 23 16 48 23 55 357 21 38 22 19 11 14 65 57 57 6 355 358 23 47 60 71 75 101 118 122 124 120 118 118 115 111 109 109 106 104 101 96 94 96 96 95 95 95 92 92 94 98
41 48 30 36 25 6 352 25 25 19 42 26 28 22 358 348 356 59 60 45 8 11 23 31 45 73 73 87 104 109 112 120 122 120 118 120 118 112 111 108 107 104 98 95 95 96 96 96 93 93 93 95 97 95
63 14 23 4 17 23 24 5 355 24 35 336 37 1 345 345 62 54 61 347 9 16 24 43 71 93 104 104 106 111 113 119 125 123 118 119 118 116 114 111 107 101 94 95 97 96 94 92 93 94 95 96 94 92
65 19 37 358 358 46 328 25 11 346 353 4 352 322 336 63 57 345 272 347 356 4 12 39 78 99 104 111 113 117 119 121 122 125 119 116 113 114 115 114 111 103 102 97 92 92 93 91 89 88 89 90 90 88
49 340 23 18 9 4 42 49 357 59 33 7 326 339 25 61 355 274 354 360 358 2 22 68 96 105 109 114 117 120 121 122 127 126 121 117 115 116 116 118 113 104 98 94 93 92 89 88 88 89 89 89 89 90
86 38 89 351 27 31 126 51 49 18 284 343 306 23 107 170 225 338 343 352 6 41 80 97 107 110 112 113 114 115 117 119 121 121 121 116 111 111 115 112 106 99 96 91 88 84 83 82 82 86 87 85 84 84
51 7 29 32 65 51 50 135 218 9 346 325 127 270 295 21 359 1 360 23 78 105 109 111 114 115 114 115 118 121 122 123 126 128 131 123 118 112 110 105 100 96 92 88 84 86 83 82 81 78 77 80 81 80
20 10 47 67 90 356 47 70 18 347 1 7 8 37 44 50 35 39 52 82 113 121 119 119 119 118 115 117 121 122 124 128 128 128 130 126 123 116 108 102 99 98 95 90 84 78 75 76 76 75 75 75 76 76
0 2 21 51 125 144 194 313 314 321 349 11 30 26 38 30 43 48 62 96 122 125 123 119 116 117 118 120 123 123 123 127 130 131 131 130 124 117 112 107 102 98 96 93 87 82 74 69 67 63 58 52 47 45
350 4 360 34 194 277 319 339 303 339 333 356 22 20 27 27 54 56 55 106 134 140 137 132 122 114 114 121 131 133 133 132 133 132 132 132 129 126 122 116 107 100 93 83 74 71 67 61 55 51 44 39 35 25
326 350 359 347 58 99 347 352 55 139 174 12 360 7 31 49 76 96 85 94 132 156 158 152 141 130 119 119 128 134 136 137 140 139 140 137 134 133 131 125 111 92 83 75 63 50 45 40 29 18 11 3 352 347